TimeEST,TemperatureF,Dew PointF,Humidity,Sea Level PressureIn,VisibilityMPH,Wind Direction,Wind SpeedMPH,Gust SpeedMPH,PrecipitationIn,Events,Conditions,WindDirDegrees,DateUTC
12:11 AM,30.2,30.2,100,30.20,2.5,NE,4.6,-,N/A,,Overcast,40,2013-01-15 05:11:00
12:53 AM,30.9,30.0,96,30.24,2.0,Calm,Calm,-,N/A,,Overcast,0,2013-01-15 05:53:00
12:59 AM,30.2,30.2,100,30.21,1.5,NE,3.5,-,N/A,,Overcast,40,2013-01-15 05:59:00
1:53 AM,30.9,30.0,96,30.24,1.0,Calm,Calm,-,N/A,,Mist,0,2013-01-15 06:53:00
2:10 AM,30.2,30.2,100,30.20,0.8,Calm,Calm,-,N/A,,Mist,0,2013-01-15 07:10:00
2:53 AM,30.0,30.0,100,30.24,0.5,NE,3.5,-,N/A,Fog,Light Freezing Fog,40,2013-01-15 07:53:00
3:53 AM,30.0,28.9,96,30.25,0.5,Variable,3.5,-,N/A,Fog,Light Freezing Fog,0,2013-01-15 08:53:00
4:45 AM,30.2,28.4,93,30.22,1.0,NNE,4.6,-,0.00,,Mist,30,2013-01-15 09:45:00
4:53 AM,30.0,30.0,100,30.25,1.0,NE,5.8,-,0.00,,Overcast,40,2013-01-15 09:53:00
5:16 AM,30.2,28.4,93,30.21,2.0,Variable,4.6,-,N/A,,Overcast,0,2013-01-15 10:16:00
5:53 AM,30.0,28.9,96,30.26,2.0,NNE,3.5,-,N/A,,Overcast,30,2013-01-15 10:53:00
6:02 AM,30.2,28.4,93,30.23,1.8,Calm,Calm,-,N/A,,Overcast,0,2013-01-15 11:02:00
6:46 AM,30.2,28.4,93,30.25,2.0,NE,3.5,-,0.01,,Overcast,40,2013-01-15 11:46:00
6:53 AM,30.0,28.9,96,30.29,2.0,Calm,Calm,-,0.01,,Overcast,0,2013-01-15 11:53:00
7:53 AM,30.0,28.0,92,30.30,3.0,Variable,3.5,-,N/A,,Overcast,0,2013-01-15 12:53:00
8:14 AM,30.2,28.4,93,30.27,2.5,Variable,3.5,-,N/A,,Overcast,0,2013-01-15 13:14:00
8:48 AM,30.2,28.4,93,30.27,1.5,Variable,3.5,-,N/A,,Overcast,0,2013-01-15 13:48:00
8:53 AM,30.0,28.0,92,30.30,1.2,NE,5.8,-,N/A,,Overcast,40,2013-01-15 13:53:00
9:15 AM,28.4,28.4,100,30.26,1.8,Variable,3.5,-,N/A,,Overcast,0,2013-01-15 14:15:00
9:24 AM,28.4,28.4,100,30.28,2.0,Variable,4.6,-,N/A,,Overcast,0,2013-01-15 14:24:00
9:53 AM,28.9,28.0,96,30.32,2.0,Variable,3.5,-,N/A,,Overcast,0,2013-01-15 14:53:00
10:08 AM,30.2,28.4,93,30.27,1.8,Calm,Calm,-,N/A,,Overcast,0,2013-01-15 15:08:00
10:22 AM,30.2,28.4,93,30.25,1.5,Variable,3.5,-,N/A,,Overcast,0,2013-01-15 15:22:00
10:47 AM,30.2,28.4,93,30.25,2.0,Variable,3.5,-,N/A,,Overcast,0,2013-01-15 15:47:00
10:53 AM,30.0,28.9,96,30.28,1.5,Calm,Calm,-,N/A,,Overcast,0,2013-01-15 15:53:00
11:14 AM,30.2,28.4,93,30.22,1.8,Calm,Calm,-,N/A,,Overcast,0,2013-01-15 16:14:00
11:23 AM,30.2,28.4,93,30.20,1.5,Variable,3.5,-,N/A,,Overcast,0,2013-01-15 16:23:00
11:53 AM,30.9,30.0,96,30.22,1.5,NE,3.5,-,N/A,,Overcast,50,2013-01-15 16:53:00
12:08 PM,30.2,30.2,100,30.19,1.8,Variable,3.5,-,N/A,,Overcast,0,2013-01-15 17:08:00
12:18 PM,30.2,30.2,100,30.18,1.5,NE,3.5,-,N/A,,Overcast,40,2013-01-15 17:18:00
12:53 PM,30.9,30.0,96,30.18,1.0,Variable,3.5,-,N/A,,Overcast,0,2013-01-15 17:53:00
1:03 PM,30.2,30.2,100,30.14,0.8,Variable,4.6,-,N/A,,Overcast,0,2013-01-15 18:03:00
1:11 PM,30.2,30.2,100,30.15,1.0,Calm,Calm,-,N/A,,Overcast,0,2013-01-15 18:11:00
1:27 PM,30.2,30.2,100,30.13,0.5,NNE,5.8,-,N/A,Fog,Light Freezing Fog,30,2013-01-15 18:27:00
1:53 PM,30.9,30.0,96,30.16,0.2,Variable,3.5,-,N/A,Fog,Light Freezing Fog,0,2013-01-15 18:53:00
2:53 PM,30.9,30.0,96,30.15,0.2,Variable,3.5,-,N/A,Fog,Light Freezing Fog,0,2013-01-15 19:53:00
3:39 PM,30.2,30.2,100,30.08,0.2,Variable,4.6,-,0.00,Fog-Rain,Light Freezing Rain,0,2013-01-15 20:39:00
3:53 PM,30.9,30.0,96,30.14,0.2,Variable,3.5,-,0.01,Fog-Rain,Light Freezing Rain,0,2013-01-15 20:53:00
4:07 PM,30.2,30.2,100,30.12,1.0,NNE,6.9,-,0.02,Rain,Light Freezing Rain,30,2013-01-15 21:07:00
4:29 PM,30.2,30.2,100,30.12,1.2,Variable,4.6,-,0.06,Rain,Light Freezing Rain,0,2013-01-15 21:29:00
4:53 PM,30.9,30.0,96,30.14,1.8,Variable,4.6,-,0.08,Rain,Light Freezing Rain,0,2013-01-15 21:53:00
5:02 PM,30.2,30.2,100,30.10,2.0,NE,4.6,-,0.01,Rain,Light Freezing Rain,40,2013-01-15 22:02:00
5:21 PM,30.2,30.2,100,30.12,3.0,NE,4.6,-,0.03,Rain,Light Freezing Rain,40,2013-01-15 22:21:00
5:33 PM,30.2,30.2,100,30.13,2.5,NNE,3.5,-,0.05,Rain,Light Freezing Rain,30,2013-01-15 22:33:00
5:49 PM,30.2,30.2,100,30.10,3.0,NE,5.8,-,0.07,Rain,Light Freezing Rain,50,2013-01-15 22:49:00
5:53 PM,30.9,30.0,96,30.14,3.0,Variable,4.6,-,0.08,Rain,Light Freezing Rain,0,2013-01-15 22:53:00
6:00 PM,30.2,30.2,100,30.12,3.0,Variable,4.6,-,0.01,,Overcast,0,2013-01-15 23:00:00
6:16 PM,30.2,30.2,100,30.13,2.5,NE,3.5,-,0.04,Rain,Light Freezing Rain,40,2013-01-15 23:16:00
6:53 PM,32.0,30.0,92,30.15,2.0,Variable,3.5,-,0.10,Rain,Light Freezing Rain,0,2013-01-15 23:53:00
7:14 PM,32.0,30.2,93,30.11,2.5,Variable,3.5,-,0.04,Rain,Light Freezing Rain,0,2013-01-16 00:14:00
7:23 PM,30.2,30.2,100,30.10,3.0,Variable,3.5,-,0.05,Rain,Light Freezing Rain,0,2013-01-16 00:23:00
7:33 PM,30.2,30.2,100,30.10,2.5,Variable,6.9,-,0.06,Rain,Light Freezing Rain,0,2013-01-16 00:33:00
7:53 PM,30.9,30.0,96,30.13,2.5,Variable,5.8,-,0.11,Rain,Light Freezing Rain,0,2013-01-16 00:53:00
8:17 PM,30.2,30.2,100,30.06,3.0,Variable,3.5,-,0.06,Rain,Light Freezing Rain,0,2013-01-16 01:17:00
8:26 PM,30.2,30.2,100,30.05,3.0,NE,5.8,-,0.08,Rain,Light Freezing Rain,50,2013-01-16 01:26:00
8:38 PM,30.2,30.2,100,30.06,3.0,Calm,Calm,-,0.09,Rain,Light Freezing Rain,0,2013-01-16 01:38:00
8:53 PM,32.0,30.0,92,30.11,4.0,NE,4.6,-,0.12,,Overcast,40,2013-01-16 01:53:00
9:27 PM,32.0,30.2,93,30.06,2.5,Calm,Calm,-,0.05,,Overcast,0,2013-01-16 02:27:00
9:43 PM,32.0,30.2,93,30.08,2.5,Calm,Calm,-,0.06,,Overcast,0,2013-01-16 02:43:00
9:53 PM,32.0,30.9,96,30.08,2.0,Calm,Calm,-,0.09,,Overcast,0,2013-01-16 02:53:00
10:00 PM,32.0,30.2,93,30.04,2.0,Variable,3.5,-,0.01,Rain,Light Freezing Rain,0,2013-01-16 03:00:00
10:06 PM,32.0,30.2,93,30.03,2.5,Variable,4.6,-,0.01,Rain,Light Freezing Rain,0,2013-01-16 03:06:00
10:10 PM,30.2,30.2,100,30.03,3.0,Calm,Calm,-,0.02,Rain,Light Freezing Rain,0,2013-01-16 03:10:00
10:34 PM,32.0,30.2,93,30.04,2.5,Calm,Calm,-,0.04,Rain,Light Freezing Rain,0,2013-01-16 03:34:00
10:44 PM,32.0,30.2,93,30.04,2.5,Calm,Calm,-,0.05,Rain,Light Freezing Rain,0,2013-01-16 03:44:00
10:51 PM,32.0,30.2,93,30.05,4.0,Calm,Calm,-,0.06,Rain,Light Freezing Rain,0,2013-01-16 03:51:00
10:53 PM,32.0,30.0,92,30.09,4.0,Calm,Calm,-,0.06,Rain,Light Freezing Rain,0,2013-01-16 03:53:00
11:12 PM,30.2,30.2,100,30.01,4.0,Calm,Calm,-,0.02,Rain,Light Freezing Rain,0,2013-01-16 04:12:00
11:40 PM,30.2,30.2,100,30.01,3.0,Calm,Calm,-,0.02,Rain,Light Freezing Rain,0,2013-01-16 04:40:00
11:53 PM,30.9,30.0,96,30.06,6.0,Calm,Calm,-,0.02,,Overcast,0,2013-01-16 04:53:00